Lake Wedowee Weather Center

Moon Phase Calendar



Lake Wedowee Water Level
Online Cameras

 


      

Current Conditions in Wedowee
5/28/2022 3:13:06 PM

79°F
Feels Like 79
Clear
Humidity
67%
Pressure
29.88"
Wind
3.6 mph (NNW)
Dew Point
67°F
UV Index
7/10 (High)
Visibility
6 mi

Hourly Forecast

Date & Time Sat, May 28
3:00 PM
Sat, May 28
4:00 PM
Sat, May 28
5:00 PM
Sat, May 28
6:00 PM
Sat, May 28
7:00 PM
Sat, May 28
8:00 PM
Sat, May 28
9:00 PM
Sat, May 28
10:00 PM
Sat, May 28
11:00 PM
Sun, May 29
12:00 AM
Sun, May 29
1:00 AM
Sun, May 29
2:00 AM
Sun, May 29
3:00 AM
Sun, May 29
4:00 AM
Sun, May 29
5:00 AM
Sun, May 29
6:00 AM
Sun, May 29
7:00 AM
Sun, May 29
8:00 AM
Sun, May 29
9:00 AM
Sun, May 29
10:00 AM
Sun, May 29
11:00 AM
Sun, May 29
12:00 PM
Sun, May 29
1:00 PM
Sun, May 29
2:00 PM
Sun, May 29
3:00 PM
Sun, May 29
4:00 PM
Sun, May 29
5:00 PM
Sun, May 29
6:00 PM
Sun, May 29
7:00 PM
Sun, May 29
8:00 PM
Sun, May 29
9:00 PM
Sun, May 29
10:00 PM
Sun, May 29
11:00 PM
Mon, May 30
12:00 AM
Mon, May 30
1:00 AM
Mon, May 30
2:00 AM
Mon, May 30
3:00 AM
Mon, May 30
4:00 AM
Mon, May 30
5:00 AM
Mon, May 30
6:00 AM
Mon, May 30
7:00 AM
Mon, May 30
8:00 AM
Mon, May 30
9:00 AM
Mon, May 30
10:00 AM
Mon, May 30
11:00 AM
Mon, May 30
12:00 PM
Mon, May 30
1:00 PM
Mon, May 30
2:00 PM
Condition
Clear

Clear

Clear

Clear

Clear

Clear

Clear

Clear

Clear

Clear

Clear

Clear

Clear

Clear

Clear

Clear

Clear

Clear

Clear

Clear

Clear

Clear

Clear

Clear

Clear

Clear

Clear

Clouds

Clouds

Clouds

Clouds

Clouds

Clouds

Clouds

Clouds

Clear

Clear

Clear

Clear

Clear

Clear

Clear

Clear

Clear

Clear

Clear

Clear

Clouds
Temperature 79°F80°F80°F79°F74°F68°F66°F65°F64°F63°F63°F62°F61°F61°F60°F60°F65°F71°F76°F79°F82°F84°F86°F88°F88°F88°F87°F82°F76°F72°F70°F69°F68°F67°F66°F65°F65°F64°F63°F63°F68°F73°F78°F82°F85°F87°F89°F90°F
Feels Like 79°F80°F80°F79°F74°F68°F66°F65°F64°F63°F62°F62°F61°F60°F60°F60°F65°F71°F75°F79°F82°F83°F85°F86°F86°F86°F86°F83°F76°F72°F70°F69°F68°F67°F66°F66°F65°F64°F63°F64°F68°F73°F78°F84°F86°F87°F88°F88°F
Cloudiness 0%0%0%1%3%6%3%2%3%3%2%0%0%0%0%0%0%0%0%0%0%0%0%1%4%8%9%13%15%30%24%19%18%15%12%0%0%0%0%0%0%0%0%0%0%0%0%14%
Visibility 6 mi6 mi6 mi6 mi6 mi6 mi6 mi6 mi6 mi6 mi6 mi6 mi6 mi6 mi6 mi6 mi6 mi6 mi6 mi6 mi6 mi6 mi6 mi6 mi6 mi6 mi6 mi6 mi6 mi6 mi6 mi6 mi6 mi6 mi6 mi6 mi6 mi6 mi6 mi6 mi6 mi6 mi6 mi6 mi6 mi6 mi6 mi6 mi
Precipitation 0%0%0%0%0%0%0%0%0%0%0%0%0%0%0%0%0%0%0%0%0%0%0%0%0%0%0%0%0%0%0%0%0%0%0%2%1%0%0%0%0%0%0%0%0%0%0%0%
Humidity 67%61%57%60%70%75%76%78%80%81%83%85%87%88%89%88%79%67%58%50%42%39%35%32%32%33%39%50%65%69%71%71%75%77%82%84%86%90%93%93%84%74%65%56%50%43%36%31%
Dew Point 67°F65°F63°F64°F64°F59°F58°F57°F57°F57°F57°F57°F57°F57°F57°F57°F58°F59°F59°F59°F57°F56°F55°F54°F54°F55°F59°F61°F63°F61°F60°F59°F59°F59°F60°F60°F60°F60°F61°F61°F63°F64°F65°F65°F64°F61°F58°F55°F
Pressure 29.88"29.88"29.88"29.85"29.88"29.88"29.91"29.94"29.94"29.94"29.94"29.94"29.94"29.94"29.94"29.97"30"30"30"30"30"29.97"29.97"29.94"29.91"29.91"29.91"29.91"29.94"29.94"29.97"30"30"30"30.03"30.03"30.03"30"30.03"30.03"30.06"30.06"30.06"30.06"30.06"30.03"30.03"30"
Wind Speed 3.6 mph3.3 mph3.4 mph3.4 mph3.6 mph3.4 mph3.3 mph3.1 mph2.8 mph2.6 mph3 mph3.1 mph3 mph3.2 mph3.4 mph3.2 mph2.9 mph4 mph4.6 mph5.4 mph5.4 mph5.8 mph6.1 mph6.7 mph7.3 mph7.5 mph8.2 mph7.9 mph5 mph3.6 mph2.6 mph4.5 mph3.5 mph3.7 mph3.8 mph3 mph3.3 mph3.1 mph2.5 mph2.2 mph2.9 mph3.4 mph2 mph3 mph4.8 mph6.4 mph7.6 mph9.7 mph
Wind
Direction
327°
NNW
327°
NNW
329°
NNW
348°
NNW
351°
N
349°
N

N
19°
NNE
33°
NNE
44°
NE
48°
NE
57°
ENE
66°
ENE
66°
ENE
75°
ENE
78°
ENE
74°
ENE
94°
E
111°
ESE
129°
SE
148°
SSE
160°
SSE
167°
SSE
167°
SSE
165°
SSE
163°
SSE
158°
SSE
163°
SSE
165°
SSE
164°
SSE
160°
SSE
110°
ESE
123°
ESE
140°
SE
134°
SE
122°
ESE
103°
ESE
112°
ESE
119°
ESE
116°
ESE
130°
SE
146°
SE
173°
S
141°
SE
145°
SE
156°
SSE
158°
SSE
167°
SSE

Daily Forecast

Date High Low Precip. Humidity
Today
May 28

Clear
80 °F
55 °F
0%
55%
Sunday
May 29

Clear
88 °F
60 °F
0%
39%
Monday
May 30

Clear
90 °F
63 °F
9%
36%
Tuesday
May 31

Clear
89 °F
64 °F
6%
42%
Wednesday
Jun 1

Clouds
90 °F
71 °F
0%
38%
Thursday
Jun 2

Rain
91 °F
69 °F
22%
36%
Friday
Jun 3

Rain
88 °F
66 °F
28%
44%
Saturday
Jun 4

Rain
89 °F
67 °F
56%
44%
Sunday
Jun 5

Rain
91 °F
66 °F
77%
41%
Monday
Jun 6

Rain
94 °F
69 °F
83%
39%
Tuesday
Jun 7

Rain
97 °F
70 °F
47%
32%
Wednesday
Jun 8

Rain
98 °F
73 °F
62%
33%
Thursday
Jun 9

Rain
95 °F
69 °F
100%
41%
Friday
Jun 10

Rain
93 °F
69 °F
100%
44%
Saturday
Jun 11

Rain
94 °F
70 °F
90%
39%
Sunday
Jun 12

Rain
95 °F
70 °F
81%
44%

Temperature 8-14 Day Outlook



Precipitation 8-14 Day Outlook




Quick Links
Lake Wedowee News
Lake Wedowee Photos
Lake Wedowee Videos




About Us
Contact Us
Site Map
Search Site
Advertise With Us
   
www.LakeWedowee.info
THE LAKE WEDOWEE WEBSITE

Copyright 2022, Lakes Online
Privacy    |    Legal